Home > Weather > Rishon LeZion > Past weeks

Flag for Israel Weather for the Past 2 Weeks in Rishon LeZion, Israel

Now
52 °F

Clear.


Feels Like: 51 °F
Forecast: 51 / 66 °F
Wind: 3 mph from North

Location: Ben Gurion International Airport

Current Time: Feb 12, 2016 at 1:32:22 AM

Latest Report: Feb 12, 2016 at 12:20 AM


Visibility: 10 mi

Pressure: 30.24 "Hg

Humidity: 88%

Dew point: 48 °F

Location of Rishon LeZionLocation

Historic Weather in Rishon LeZion — Graph

°F

Rishon LeZion Temperature Yesterday

Maximum temperature yesterday: 63 °F (at 10:20 AM)
Minimum temperature yesterday: 50 °F (at 3:50 AM)
Average temperature yesterday: 57 °F

High & Low Weather Summary for the Past Weeks

 TemperatureHumidityPressure
High75 °F (Feb 4, 2:20 PM)94% (Feb 3, 6:50 AM)30.45 "Hg (Feb 3, 6:50 AM)
Low34 °F (Jan 28, 5:50 AM)21% (Feb 4, 2:20 PM)29.92 "Hg (Feb 5, 1:20 PM)
Average54 °F70%30.20 "Hg
* Reported Jan 27 11:20 PM — Feb 11 11:20 PM, Rishon LeZion, Weather by CustomWeather, © 2016

Note: Actual official high and low records may vary slightly from our data, if they occured in-between our weather recording intervals... More about our weather records

Advertising

Rishon LeZion Weather History for the Previous 24 Hours

 ConditionsComfort  
Time TempWeatherWind HumidityBarometerVisibility
11:20 PM
Thu, Feb 11
54 °FClear.3 mph82%30.24 "Hg10 mi
10:50 PM52 °FClear.2 mph88%30.24 "Hg10 mi
10:20 PM52 °FClear.1 mph94%30.24 "Hg10 mi
9:50 PM54 °FClear.2 mph88%30.24 "Hg10 mi
9:20 PM54 °FClear.3 mph88%30.27 "Hg10 mi
8:50 PM55 °FClear.2 mph82%30.24 "Hg10 mi
8:20 PM57 °FClear.5 mph77%30.24 "Hg10 mi
7:50 PM59 °FClear.3 mph72%30.24 "Hg10 mi
7:20 PM57 °FClear.3 mph77%30.24 "Hg10 mi
6:50 PM59 °FClear.1 mph72%30.24 "Hg10 mi
6:20 PM59 °FPassing clouds.1 mph68%30.24 "HgN/A
5:50 PM59 °FPassing clouds.1 mph68%30.24 "HgN/A
5:20 PM59 °FPassing clouds.3 mph68%30.24 "HgN/A
4:50 PM61 °FPassing clouds.6 mph68%30.24 "HgN/A
4:20 PM63 °FPassing clouds.9 mph59%30.24 "HgN/A
3:50 PM63 °FPassing clouds.9 mph64%30.24 "HgN/A
3:20 PM63 °FPassing clouds.8 mph64%30.21 "HgN/A
2:50 PM63 °FPassing clouds.10 mph64%30.21 "HgN/A
2:20 PM63 °FScattered clouds.12 mph64%30.21 "HgN/A
1:50 PM63 °FScattered clouds.9 mph64%30.21 "HgN/A
1:20 PM63 °FScattered clouds.9 mph64%30.21 "HgN/A
12:50 PM63 °FScattered clouds.10 mph64%30.21 "HgN/A
12:20 PM63 °FScattered clouds.7 mph64%30.24 "HgN/A
11:50 AM63 °FScattered clouds.7 mph59%30.24 "HgN/A
11:20 AM63 °FScattered clouds.8 mph64%30.24 "HgN/A
10:50 AM63 °FScattered clouds.9 mph64%30.24 "HgN/A
10:20 AM63 °FScattered clouds.7 mph64%30.24 "HgN/A
9:50 AM59 °FPassing clouds.7 mph72%30.27 "HgN/A
9:20 AM57 °FPassing clouds.9 mph77%30.27 "HgN/A
8:50 AM55 °FScattered clouds.9 mph77%30.24 "HgN/A
8:20 AM55 °FScattered clouds.8 mph77%30.24 "HgN/A
7:50 AM54 °FPassing clouds.7 mph88%30.24 "HgN/A
7:20 AM52 °FPassing clouds.3 mph88%30.24 "HgN/A
6:20 AM52 °FPassing clouds.8 mph88%30.21 "HgN/A
5:50 AM52 °FPassing clouds.8 mph88%30.21 "HgN/A
5:20 AM52 °FPassing clouds.2 mph88%30.21 "HgN/A
4:50 AM52 °FPassing clouds.5 mph88%30.21 "HgN/A
4:20 AM52 °FPassing clouds.5 mph88%30.18 "HgN/A
3:50 AM50 °FPassing clouds.1 mph94%30.18 "HgN/A
3:20 AM52 °FPassing clouds.1 mph88%30.18 "HgN/A
2:50 AM52 °FPassing clouds.1 mph88%30.18 "HgN/A
2:20 AM54 °FPassing clouds.2 mph88%30.15 "HgN/A
1:50 AM52 °FPassing clouds.5 mph88%30.15 "HgN/A
1:20 AM54 °FPassing clouds.3 mph82%30.15 "HgN/A
Weather by CustomWeather, © 2016

See weather overviewHow to use our weather pages